Location: Cazavet
(43.0017°N, 1.0431°E)
Time: 23:00:45
(UTC+00:00)

COSMOS 2406 - Pass Details

Date: 18 January 2026
Orbit: 843 x 861 km, 71.0° (Epoch: 13 February)

Event Time Altitude Azimuth Distance (km) Brightness Sun altitude
Exits shadow 05:57:53 - 338° (NNW) 2,953 5.7 -15.3°
Reaches altitude 10° 05:59:06 10° 340° (NNW) 2,497 5.3 -15.1°
Maximum altitude 06:04:50 68° 63° (ENE) 926 3.6 -14.1°
Drops below altitude 10° 06:10:32 10° 146° (SSE) 2,489 6.4 -13.1°
Sets 06:13:00 0° 149° (SSE) 3,423 7.1 -12.6°
